RH
87 73 77 87 74 61 43 41 40 31 24 28 34 30 28 28 25 39 23 18 19 19 24 25 23 20 18 18 19 16 18 19 18 19 15 15 14 10 10 12 8 11 11 17 26
88 83 71 77 74 70 48 42 41 32 22 29 34 30 29 28 37 23 18 16 16 17 24 18 13 13 14 18 18 17 18 14 12 10 11 11 13 12 12 10 9 9 10 14 18
82 82 80 72 64 58 38 42 39 33 23 30 34 29 29 28 30 15 17 17 14 16 20 14 12 12 14 15 16 16 15 13 10 10 11 14 14 13 13 13 15 16 14 13 15
77 80 79 79 71 72 57 51 35 32 24 31 34 29 27 42 24 19 18 18 15 24 18 14 12 14 15 16 14 16 12 13 14 16 16 15 15 14 14 15 14 14 14 15 14
79 87 85 74 69 66 54 45 35 31 25 35 32 28 34 24 18 24 20 19 20 21 14 13 14 15 16 13 14 16 13 13 13 14 16 14 16 16 16 14 13 15 17 18 18
81 84 82 71 62 64 61 43 35 29 28 38 29 28 37 25 17 33 32 29 18 16 13 14 14 14 15 15 16 15 14 13 12 13 13 18 14 18 14 13 14 16 18 19 22
81 84 85 75 71 62 67 40 34 26 34 37 30 40 27 20 18 27 27 19 17 15 14 15 14 15 15 15 14 14 16 11 12 15 15 16 17 18 14 13 14 14 17 20 21
86 84 89 78 71 69 70 39 35 26 35 34 31 42 25 19 20 26 20 17 17 16 16 17 16 15 16 16 14 15 13 15 14 14 17 17 14 14 13 13 15 14 16 19 21
92 90 87 81 74 53 49 38 28 33 35 32 40 33 24 19 19 19 18 16 16 17 17 17 16 17 18 17 14 14 12 14 15 13 14 15 13 14 14 14 14 14 15 17 20
94 91 85 82 74 59 75 42 41 37 35 33 38 28 21 19 17 18 18 16 16 17 18 18 18 20 17 15 17 13 13 12 14 15 14 15 15 13 14 16 14 14 16 18 22
94 92 81 76 63 40 58 46 29 27 39 28 24 22 17 18 20 18 18 17 16 18 23 20 23 21 12 12 12 15 14 14 12 15 19 17 16 14 15 17 15 15 16 19 24
97 92 83 79 51 41 56 22 18 27 29 28 23 23 20 17 19 17 17 19 20 24 20 23 24 16 14 16 17 16 17 16 13 16 20 16 17 17 19 17 15 15 17 21 22
98 93 86 75 76 64 45 32 28 33 29 22 22 22 21 19 18 18 17 18 21 24 22 24 16 17 17 19 20 18 17 15 17 16 17 20 20 22 19 18 17 15 18 19 22
95 86 90 76 62 45 44 36 29 38 33 25 30 24 20 18 21 15 17 17 19 20 19 17 15 19 19 18 17 18 15 16 18 21 19 18 18 23 21 22 22 21 21 21 22
90 86 82 41 37 38 28 29 34 32 46 20 24 23 18 22 21 20 17 18 20 19 18 18 21 23 22 18 16 19 20 20 22 22 20 18 23 10 19 21 21 20 20 23 24
87 76 79 66 54 35 36 35 29 39 43 26 23 26 26 23 22 22 21 17 17 18 18 17 18 17 17 19 18 22 22 24 24 22 25 15 19 18 20 18 18 18 20 23 24
91 75 81 61 36 41 40 28 40 39 21 31 29 26 24 25 24 22 24 25 24 28 26 20 20 18 19 21 23 23 21 24 25 30 22 22 24 15 15 14 14 17 19 22 24
94 82 66 56 45 44 34 32 38 21 21 25 26 26 27 24 23 23 24 25 22 20 20 23 26 20 20 19 18 24 20 21 23 16 17 24 24 18 15 15 14 14 16 20 23
99 88 71 55 44 44 34 42 31 18 17 28 27 31 30 26 24 24 24 24 20 20 22 18 22 24 22 20 20 24 27 19 20 19 21 12 15 18 17 19 18 17 17 21 23
68 67 55 54 47 42 46 39 23 22 24 25 26 24 30 29 28 26 22 18 19 17 15 16 26 25 26 23 23 25 20 24 19 22 24 17 18 16 22 20 20 20 19 21 23
58 45 61 49 47 46 49 35 26 25 26 26 24 26 23 26 24 27 21 22 18 21 18 17 19 30 26 27 24 26 24 22 22 21 21 19 16 13 13 16 19 18 20 21 24
50 45 70 48 48 44 45 30 28 28 28 29 27 24 24 24 25 23 21 22 20 24 25 18 19 24 23 23 22 22 19 18 21 21 22 26 21 14 15 15 16 18 19 21 25
47 69 75 54 49 41 38 33 34 31 29 28 28 26 23 26 29 23 25 27 26 25 21 20 21 25 27 27 24 24 20 20 18 23 21 23 19 19 18 17 18 19 20 25 30
47 67 67 59 36 34 42 41 44 34 27 25 25 25 26 26 26 29 28 34 27 26 35 24 23 22 20 21 20 25 23 22 22 22 20 20 18 15 18 20 20 20 22 27 32
40 38 42 60 50 43 37 40 47 41 32 24 29 24 24 26 27 24 26 36 34 42 27 24 28 21 19 19 21 20 20 22 24 21 23 18 17 14 14 16 19 20 22 28 33
43 57 48 40 38 45 46 40 48 42 32 31 29 25 23 23 23 23 24 25 25 36 29 29 28 28 27 22 27 28 24 23 21 23 22 20 21 15 15 18 18 17 22 29 33
50 53 36 47 43 50 44 36 36 35 33 26 27 27 28 25 19 25 23 22 22 25 29 32 28 31 30 29 34 36 31 27 23 20 22 27 20 21 23 28 25 24 25 31 32
Wind_Speed
13 13 12 12 10 10 9 8 8 8 7 6 8 9 10 13 14 6 9 1 6 8 7 6 6 4 4 3 1 2 6 7 6 5 5 3 5 3 5 11 11 5 7 6 3
14 13 13 12 12 11 8 8 10 6 7 6 8 9 11 13 12 13 8 7 6 10 7 8 5 5 4 3 3 6 6 5 5 5 4 2 5 9 9 12 10 7 3 2 3
15 14 13 12 13 12 10 9 10 5 6 7 8 9 10 11 8 8 14 10 8 10 5 3 2 4 3 3 5 3 8 5 5 5 5 7 8 4 8 10 7 8 10 8 8
15 16 14 13 14 12 10 11 8 6 6 8 8 8 10 3 4 4 11 12 9 7 7 5 4 3 3 5 2 7 6 5 4 2 4 6 5 8 9 8 6 6 8 9 9
16 17 15 14 14 12 10 9 8 8 7 7 8 8 4 6 9 1 9 13 9 8 9 6 5 2 5 3 5 9 7 4 5 7 8 8 12 9 6 2 4 3 4 6 6
18 17 16 15 14 12 10 9 8 8 6 7 6 6 6 10 1 3 9 10 9 10 7 6 3 3 6 5 6 4 6 10 7 9 5 5 5 2 6 1 1 1 5 7 7
18 17 16 14 12 11 11 8 8 8 6 5 5 4 8 9 1 5 9 9 7 7 6 2 2 4 3 5 3 7 10 9 7 2 2 4 9 8 5 2 1 3 7 8 9
16 17 17 14 13 11 11 9 8 8 5 4 4 3 6 2 4 8 9 6 6 4 3 2 1 2 5 1 7 8 7 8 10 4 4 4 1 10 4 3 3 4 7 9 11
17 18 17 15 13 12 11 9 8 5 3 2 2 4 9 2 6 10 12 9 8 7 5 4 3 4 3 8 9 8 9 4 5 3 1 7 5 11 7 1 4 5 7 8 11
18 18 17 16 14 12 12 9 7 6 3 1 3 4 10 9 7 10 11 10 7 8 6 5 5 8 7 8 9 5 5 4 8 6 5 10 13 9 9 6 8 8 8 9 11
19 18 17 16 14 13 11 5 7 2 2 7 5 11 7 2 6 11 12 13 8 10 11 8 8 10 9 9 9 7 9 10 7 5 4 9 6 8 5 10 13 10 9 10 11
18 18 17 15 13 13 9 5 5 3 6 19 20 11 15 6 7 10 13 13 10 14 12 4 13 14 4 6 8 10 10 11 6 2 4 10 9 1 5 12 14 13 12 11 12
19 18 16 14 13 13 12 11 4 3 5 11 24 22 14 12 13 15 15 16 11 16 14 15 1 6 2 5 9 11 11 10 7 3 11 11 10 8 9 7 7 10 11 11 12
20 19 18 17 9 12 8 16 7 5 5 11 8 9 17 9 11 3 17 8 8 12 13 10 2 4 7 9 7 10 3 9 8 6 4 5 3 13 16 15 14 12 11 11 11
22 21 23 24 7 11 4 15 12 2 5 8 9 2 7 17 8 7 6 7 12 9 6 3 7 6 8 8 5 2 2 3 6 9 9 13 5 10 18 17 17 15 14 13 12
25 24 24 16 2 5 7 17 12 5 8 7 6 9 12 17 8 5 8 5 4 9 8 8 2 4 2 4 2 5 3 5 6 7 7 8 7 11 14 19 19 17 15 15 13
28 28 29 19 4 7 13 14 7 9 2 6 6 9 15 11 13 10 13 15 11 9 13 13 14 5 6 6 4 7 7 4 6 5 2 3 4 8 9 13 19 19 18 16 14
27 29 26 13 7 10 15 12 12 6 7 5 5 9 14 11 12 11 12 15 19 14 6 10 7 18 13 13 10 11 12 7 5 3 2 4 5 2 2 3 4 18 17 16 15
30 22 10 16 13 14 8 15 13 4 6 10 9 10 8 9 4 11 14 14 15 15 10 7 6 4 2 3 4 7 8 2 6 3 4 6 4 8 7 8 8 11 18 16 15
21 16 10 15 14 11 9 20 17 2 3 10 9 11 13 13 9 11 12 10 12 15 17 4 3 4 4 3 2 4 2 3 6 4 5 5 5 5 10 13 13 16 16 16 14
16 6 11 20 14 6 14 20 5 3 4 7 8 8 8 10 13 10 5 2 14 10 14 5 5 5 5 9 9 5 4 6 4 3 4 5 3 4 2 10 15 18 18 17 13
10 6 13 24 10 12 15 21 2 6 4 3 2 3 8 10 11 10 9 1 6 10 8 10 4 5 5 3 2 5 10 12 7 5 5 3 8 2 1 5 10 13 15 12 12
8 4 6 11 12 14 15 16 4 7 6 5 5 4 2 7 6 9 5 3 5 8 9 9 7 7 4 3 4 6 9 9 9 4 12 8 5 3 1 7 10 13 13 11 12
6 5 4 6 12 20 20 18 9 6 4 5 3 4 5 4 3 7 5 2 4 5 3 3 3 10 7 4 5 5 10 12 13 10 11 14 19 11 7 9 12 14 14 13 12
7 7 12 13 16 11 21 13 16 8 7 8 4 10 7 5 6 4 5 4 3 3 3 4 6 11 12 4 5 8 9 12 16 17 15 18 18 17 15 9 13 15 12 14 13
7 4 6 10 22 17 17 18 22 21 14 10 10 13 10 12 7 7 8 6 5 6 6 3 4 3 12 7 8 11 11 16 18 19 20 20 23 19 14 11 9 13 15 14 12
6 2 7 11 20 16 18 20 19 17 14 11 12 7 10 11 5 4 4 3 2 4 10 5 5 5 12 2 7 10 18 22 22 20 15 17 19 8 8 4 7 11 13 13 12
Wind_Direction
245 247 255 254 253 255 259 272 283 289 288 291 305 316 319 321 316 288 249 100 193 200 164 180 204 201 215 150 263 278 255 250 246 252 268 84 269 279 301 285 284 262 286 29 16
251 250 252 256 258 257 254 268 274 288 290 291 306 315 321 328 309 262 236 223 189 176 181 204 193 204 191 177 199 246 248 277 354 306 271 287 283 307 300 292 270 251 225 236 291
255 253 255 261 261 259 255 266 272 287 289 287 302 311 322 331 283 232 205 196 181 177 233 231 210 258 222 246 193 181 253 19 275 294 313 294 288 296 285 285 41 326 314 320 300
252 256 250 250 251 253 252 260 274 287 275 278 300 308 316 290 226 79 177 183 181 187 198 200 228 233 271 243 197 258 235 277 309 354 285 279 329 277 282 290 2 315 318 302 300
244 250 249 244 249 250 251 258 263 276 266 269 295 318 320 228 257 292 186 180 180 193 217 226 261 293 264 268 257 246 286 305 274 275 262 284 271 277 272 25 345 353 326 330 329
242 242 243 240 236 246 249 251 262 265 251 275 296 322 258 247 56 155 164 178 195 205 207 234 308 335 297 273 261 16 286 277 274 274 263 247 259 249 136 325 71 14 24 28 17
237 234 237 237 232 236 247 246 254 255 247 274 301 315 256 238 358 185 172 186 201 220 213 262 293 261 352 269 276 279 280 273 245 214 189 223 236 228 123 155 121 83 70 55 44
235 226 230 230 229 228 241 232 236 236 244 285 309 266 258 179 235 196 185 171 173 172 165 145 225 299 271 2 247 262 251 264 138 194 137 224 31 138 149 171 134 91 77 67 62
230 227 224 221 221 217 219 220 225 211 230 279 262 241 257 229 205 208 194 181 160 144 123 136 215 284 221 245 260 208 280 233 166 171 195 228 314 156 184 350 172 126 99 81 69
227 227 220 216 210 209 213 187 188 153 154 56 263 250 246 240 187 190 190 185 172 163 159 207 237 250 225 239 252 324 250 229 273 140 231 253 261 214 189 251 208 153 124 95 76
223 223 215 213 201 197 176 166 208 159 184 198 224 221 349 168 167 192 183 179 192 203 225 193 249 245 251 229 283 295 280 274 275 94 286 259 252 264 277 228 189 161 139 112 95
219 213 208 205 192 186 179 216 189 33 277 219 248 258 257 260 201 191 186 191 199 219 221 205 245 258 25 291 250 252 256 266 269 124 257 274 264 7 219 187 177 166 146 131 122
214 206 198 188 181 179 194 180 152 50 262 251 219 230 236 221 238 185 191 210 213 228 216 242 18 89 164 223 227 238 252 268 283 297 244 273 254 176 163 160 156 173 150 144 134
206 196 187 169 170 181 210 200 136 41 260 222 193 231 222 217 237 229 200 191 213 230 220 245 141 210 240 249 238 268 321 268 269 261 281 212 310 189 178 184 188 181 174 152 143
198 188 185 167 136 181 159 192 195 343 256 113 146 72 202 201 119 173 162 200 219 200 194 162 181 192 229 251 225 258 58 240 258 264 290 236 249 241 172 190 192 185 179 166 162
193 182 180 190 208 165 155 154 139 220 242 171 149 185 176 207 185 129 186 226 312 238 227 264 36 218 290 103 183 124 202 235 256 257 251 247 226 173 190 201 190 189 180 174 167
190 177 176 177 161 163 150 157 186 230 120 163 191 183 195 180 185 186 184 195 196 205 227 228 219 182 188 184 176 211 254 245 210 198 289 112 212 288 188 204 198 190 186 180 175
187 175 176 165 186 155 167 196 217 197 190 118 171 181 197 167 199 194 198 206 215 226 283 207 205 204 198 220 242 208 231 267 288 278 60 165 233 102 132 149 260 184 188 183 180
174 161 176 189 180 158 195 209 219 216 156 155 149 169 192 198 220 188 205 211 201 206 217 203 181 120 237 164 221 163 216 2 283 244 261 236 221 158 164 189 205 209 190 187 188
157 152 177 173 166 164 206 224 225 79 148 177 182 193 195 189 194 199 193 223 214 211 228 246 154 192 125 192 205 271 44 187 216 256 248 199 266 248 194 204 198 198 198 190 193
147 160 151 176 153 194 214 220 204 183 232 198 215 182 204 179 200 194 196 144 204 189 215 248 258 134 167 207 184 182 224 237 302 272 288 290 261 86 239 199 202 200 195 193 187
167 179 155 158 178 209 215 215 170 192 190 228 276 242 192 189 195 210 215 156 175 166 182 206 278 186 197 100 338 290 246 220 243 201 240 291 276 168 308 200 199 199 194 180 181
171 106 155 191 200 202 209 210 201 194 196 191 196 230 183 183 192 203 193 83 169 179 184 172 221 194 174 180 193 225 216 243 258 285 256 272 259 68 217 201 196 196 179 178 172
161 137 145 212 224 201 192 205 205 213 226 213 155 158 172 183 182 180 166 123 169 206 334 200 239 242 248 55 105 187 213 217 223 252 253 245 266 265 212 218 210 214 187 187 179
201 184 175 188 206 221 190 188 197 190 227 197 190 218 198 175 187 176 145 132 159 174 205 231 243 241 265 282 256 261 233 218 225 241 254 266 277 281 302 276 223 219 204 193 186
186 156 177 166 186 194 184 205 190 210 174 198 227 202 212 229 215 198 184 185 188 178 193 195 248 277 260 257 261 262 249 251 251 247 258 263 270 282 303 298 246 241 197 203 190
185 110 184 157 182 189 199 204 204 197 217 232 207 205 214 229 266 48 59 20 338 190 193 188 221 237 265 346 290 270 238 240 247 246 247 255 262 318 291 271 257 256 178 194 193